Lamar, CO

7:22 AM MDT on May 26, 2017 (GMT -0600)
Lamar Municipal

Weather History for KLAA - February, 2013

Change the Weather History Date:

Friday, February 22, 2013

  Actual Average Record
Temperature  
Mean Temperature 26 °F 35 °F  
Max Temperature 41 °F 52 °F 79 °F (1982)
Min Temperature 11 °F 19 °F -3 °F (1939)
Degree Days  
Heating Degree Days 39 30  
Month to date heating degree days 673 709  
Since 1 July heating degree days 3892 4140  
Cooling Degree Days 0 0  
Month to date cooling degree days 0 0  
Year to date cooling degree days 0 0  
Moisture  
Dew Point 19 °F    
Average Humidity 68    
Maximum Humidity 92    
Minimum Humidity 44    
Precipitation  
Precipitation 0.00 in 0.01 in 0.11 in (1957)
Month to date precipitation 0.10  
Year to date precipitation 0.12  
Sea Level Pressure  
Sea Level Pressure 30.02 in    
Wind  
Wind Speed 5 mph (SW)    
Max Wind Speed 10 mph    
Max Gust Speed 12 mph    
Visibility 10 miles    
Events      
T = Trace of Precipitation, MM = Missing Value Source: NWS Daily Summary

Daily Weather History Graph

Daily Weather History Graph

Search for Another Location

Airport or City:

Trip Planner

Search our weather history database for the weather conditions in past years. The results will help you decide how hot, cold, wet, or windy it might be!

Date:

Astronomy

Feb. 22, 2013 Rise Set
Actual Time 6:31 AM MST 5:37 PM MST
Civil Twilight 6:05 AM MST 6:03 PM MST
Nautical Twilight 5:34 AM MST 6:34 PM MST
Astronomical Twilight 5:03 AM MST 7:05 PM MST
Moon 2:52 PM MST (2/22) 4:16 AM MST (2/22)
Length of Visible Light 11h 58m
Length of Day
11h 05m
Waxing Gibbous, 90% of the Moon is Illuminated
Feb 22
Waxing Gibbous
Feb 25
Full
Mar 4
Last Quarter
Mar 11
New
Mar 19
First Quarter

Hourly Weather History & Observations

Time (MST) Temp. Windchill Dew Point Humidity Pressure Visibility Wind Dir Wind Speed Gust Speed Precip Events Conditions
12:53 AM 12.9 °F 2.6 °F 10.0 °F 88% 30.02 in 10.0 mi SSW 6.9 mph - N/A   Clear
1:53 AM 12.0 °F 1.5 °F 9.0 °F 88% 30.04 in 10.0 mi SSW 6.9 mph - N/A   Clear
2:53 AM 12.9 °F - 9.0 °F 84% 30.02 in 10.0 mi Calm Calm - N/A   Clear
3:53 AM 15.1 °F - 10.9 °F 84% 30.00 in 10.0 mi Calm Calm - N/A   Clear
4:53 AM 12.0 °F 2.7 °F 9.0 °F 88% 30.00 in 10.0 mi WSW 5.8 mph - N/A   Clear
5:53 AM 12.9 °F 1.6 °F 10.0 °F 88% 30.03 in 10.0 mi SSW 8.1 mph - N/A   Clear
6:53 AM 14.0 °F 3.9 °F 10.9 °F 88% 30.05 in 9.0 mi SSW 6.9 mph - N/A   Clear
7:53 AM 19.0 °F 11.1 °F 16.0 °F 88% 30.06 in 10.0 mi SSW 5.8 mph - N/A   Clear
8:53 AM 25.0 °F 20.7 °F 19.9 °F 81% 30.06 in 10.0 mi West 3.5 mph - N/A   Clear
9:53 AM 28.9 °F 23.9 °F 21.0 °F 72% 30.06 in 10.0 mi WNW 4.6 mph - N/A   Scattered Clouds
10:53 AM 32.0 °F - 21.0 °F 64% 30.06 in 10.0 mi Calm Calm - N/A   Clear
11:53 AM 34.0 °F 31.0 °F 21.9 °F 61% 30.04 in 10.0 mi Variable 3.5 mph - N/A   Scattered Clouds
12:53 PM 37.0 °F 33.3 °F 23.0 °F 57% 30.02 in 10.0 mi NW 4.6 mph - N/A   Mostly Cloudy
1:53 PM 39.0 °F - 19.9 °F 46% 30.00 in 10.0 mi Calm Calm - N/A   Overcast
2:53 PM 39.9 °F 35.8 °F 21.9 °F 49% 29.99 in 10.0 mi West 5.8 mph - N/A   Overcast
3:53 PM 39.0 °F 36.8 °F 21.0 °F 49% 29.99 in 10.0 mi NW 3.5 mph - N/A   Overcast
4:53 PM 37.0 °F 31.0 °F 26.1 °F 65% 29.99 in 10.0 mi ENE 8.1 mph - N/A   Mostly Cloudy
5:53 PM 30.9 °F 26.2 °F 24.1 °F 76% 30.02 in 10.0 mi ENE 4.6 mph - N/A   Clear
6:53 PM 28.9 °F 21.9 °F 24.1 °F 82% 30.04 in 10.0 mi ESE 6.9 mph - N/A   Clear
7:53 PM 28.0 °F - 24.1 °F 85% 30.04 in 9.0 mi Calm Calm - N/A   Overcast
8:39 PM 28.4 °F 24.6 °F 24.8 °F 86% 29.95 in 9.0 mi SSW 3.5 mph - N/A   Overcast
8:53 PM 28.0 °F 22.8 °F 24.1 °F 85% 30.02 in 10.0 mi SSW 4.6 mph - N/A   Overcast
9:02 PM 28.4 °F 23.3 °F 23.0 °F 80% 29.95 in 10.0 mi SSW 4.6 mph - N/A   Mostly Cloudy
9:53 PM 25.0 °F 17.1 °F 21.0 °F 85% 30.02 in 10.0 mi SSW 6.9 mph - N/A   Clear
10:53 PM 21.9 °F 13.4 °F 19.9 °F 92% 30.00 in 9.0 mi SSW 6.9 mph - N/A   Clear
11:53 PM 19.9 °F 11.1 °F 18.0 °F 92% 29.99 in 9.0 mi SW 6.9 mph - N/A   Clear